IRIDIUM 33 DEB

Satellite information

Favourite Embed

Satellite Type and Status

DEBRISIN ORBIT

Key statistics

Satellite IRIDIUM 33 DEB at a glance.

Uptime

10318

Days in orbit

Revolutions

≈ 14.6

Per day

Orbit

LEO

Low Earth Orbit

Inclination

86.4

Latest

Satellite identification and parameters

Extended collection of information and parameters for IRIDIUM 33 DEB.

Object identification

Identified? True

Debris? True

Object name: IRIDIUM 33 DEB

International designator: 1997-051BA

Object number (NORAD): 33881

Object ID (CCSDS): 33881

Country: UNITED STATES OF AMERICA (US)

Current information (Y/N): Y

RCS size: SMALL

Orbital parameters

Period: 98.863 minutes

Inclination: 86.386 deg

SMA: 7082.444 km

Apoapsis: 747.842 km

Periapsis: 660.777 km

RAAN: 106.9929 deg

Eccentricy: 0.00614654

Argument of periapsis: 176.5725 deg

Mean anomaly: 237.0343 deg

Mean motion: 14.56558764 rev/day

Mean motion (dot): 0.00014247 rev/day2

B* drag term: 0.0031107263 1/REarth

Two-line elements (TLE)

Creation date: Dec. 12, 2025, 10:14 a.m.

Reference frame: TEME

Reference center: EARTH

Epoch: Dec. 12, 2025, 3:55 a.m. UTC

TLE line 0: 0 IRIDIUM 33 DEB

TLE line 1: 1 33881U 97051BA 25346.16326340 .00014247 00000-0 31107-2 0 9992

TLE line 2: 2 33881 86.3860 106.9929 0061465 176.5725 237.0343 14.56558764874920

Live tracking on map

Real-time ground track for satellite IRIDIUM 33 DEB.

In-orbit conjunctions

A list of the most updated potential collisions computed for object IRIDIUM 33 DEB.

Target Orbit TCA Probability of collision Miss distance Type
SAC C SSO 2025-04-02 09:47:31 0.0001149647 482.0 (m) PAYLOAD
CZ-6A DEB SSO 2025-02-10 13:11:14 0.001282699 39.0 (m) DEBRIS
METEOR 2-5 DEB LEO 2024-11-15 01:48:46 0.0004479281 574.0 (m) DEBRIS
CBERS 2 SSO 2024-06-26 12:50:04 0.0003141559 470.0 (m) PAYLOAD
NOAA 12 DEB SSO 2024-06-12 11:02:58 0.0003114421 60.0 (m) DEBRIS

Associated space launch

Iridium provides global mobile telecommunications services using a constellation of 66 low earth orbit satellites in a 86.4° inclined orbit. Although 77 satellites were originally envisioned for the system and spawned the name based on the 77th element in the periodic table, the system has been scaled back. Motorola's Satellite Communications Group designed and manufactured the Iridium satellites with Lockheed Martin providing the LM-700A spacecraft buses.

IRIDIUM 33 DEB was lifted into orbit during the mission ‘Proton-K/17S40 | Iridium 27 to 33’, on board a Proton-K/17S40 space rocket.

The launch took place on Sept. 14, 1997, 1:36 a.m. from 81/23 (81L).

For more information about the launch, click the button.

Launch to space Proton-K/17S40 | Iridium 27 to 33
Proton-K/17S40 | Iridium 27 to 33

Agency: N/A

Status: Launch Successful

Launch date: Sept. 14, 1997, 1:36 a.m. UTC

Rocket: Proton-K/17S40

Launch pad: 81/23 (81L)

Location: Baikonur Cosmodrome, Republic of Kazakhstan

...

Latest news about this satellite

There are no fresh news available about this satellite. Check back as we update our databases every day.


Newsletter sign-up

Weekly statistics, charts and insights to help you stay on top of the space industry.